Time,TemperatureF,DewpointF,PressureIn,WindDirection,WindDirectionDegrees,WindSpeedMPH,WindSpeedGustMPH,Humidity,HourlyPrecipIn,Conditions,Clouds,dailyrainin,SoftwareType,DateUTC
2013-04-08 00:02:00,32.4,19.6,29.87,NNE,19,3.1,3.6,59,0.00,,---,0.00,VWS V13.01,2013-04-08 05:02:00,
2013-04-08 00:07:00,32.4,19.2,29.87,NNE,19,0.0,0.0,58,0.00,,---,0.00,VWS V13.01,2013-04-08 05:07:00,
2013-04-08 00:13:00,32.5,19.4,29.87,NNE,19,0.0,0.0,58,0.00,,---,0.00,VWS V13.01,2013-04-08 05:13:00,
2013-04-08 00:19:00,32.5,19.4,29.87,NNE,19,0.0,0.0,58,0.00,,---,0.00,VWS V13.01,2013-04-08 05:19:00,
2013-04-08 00:24:00,32.5,19.4,29.87,NNE,19,3.1,4.5,58,0.00,,---,0.00,VWS V13.01,2013-04-08 05:24:00,
2013-04-08 00:29:00,32.5,19.4,29.87,NE,34,0.0,3.1,58,0.00,,---,0.00,VWS V13.01,2013-04-08 05:29:00,
2013-04-08 00:34:00,32.7,19.6,29.87,NE,34,0.0,0.0,58,0.00,,---,0.00,VWS V13.01,2013-04-08 05:34:00,
2013-04-08 00:40:00,32.7,19.6,29.87,NE,34,0.0,0.0,58,0.00,,---,0.00,VWS V13.01,2013-04-08 05:40:00,
2013-04-08 00:46:00,32.7,19.6,29.87,NE,34,0.0,0.0,58,0.00,,---,0.00,VWS V13.01,2013-04-08 05:46:00,
2013-04-08 00:52:00,32.9,19.8,29.87,NE,34,0.0,0.0,58,0.00,,---,0.00,VWS V13.01,2013-04-08 05:52:00,
2013-04-08 00:57:00,32.9,19.8,29.87,NE,34,0.0,0.0,58,0.00,,---,0.00,VWS V13.01,2013-04-08 05:57:00,
2013-04-08 01:03:00,32.9,19.8,29.87,NE,34,0.0,0.0,58,0.00,,---,0.00,VWS V13.01,2013-04-08 06:03:00,
2013-04-08 01:08:00,32.7,20.0,29.87,NE,34,0.0,0.0,59,0.00,,---,0.00,VWS V13.01,2013-04-08 06:08:00,
2013-04-08 01:14:00,32.7,20.4,29.87,NE,34,0.0,0.0,60,0.00,,---,0.00,VWS V13.01,2013-04-08 06:14:00,
2013-04-08 01:19:00,32.5,20.2,29.87,NE,34,0.0,0.0,60,0.00,,---,0.00,VWS V13.01,2013-04-08 06:19:00,
2013-04-08 01:25:00,32.4,20.8,29.87,NE,34,0.0,0.0,62,0.00,,---,0.00,VWS V13.01,2013-04-08 06:25:00,
2013-04-08 01:30:00,32.2,21.4,29.87,NE,34,0.0,0.0,64,0.00,,---,0.00,VWS V13.01,2013-04-08 06:30:00,
2013-04-08 01:35:00,32.2,22.5,29.87,NE,34,0.0,0.0,67,0.00,,---,0.00,VWS V13.01,2013-04-08 06:35:00,
2013-04-08 01:40:00,32.2,23.5,29.87,NE,34,3.6,3.6,70,0.00,,---,0.00,VWS V13.01,2013-04-08 06:40:00,
2013-04-08 01:47:00,32.2,24.5,29.87,NE,34,4.0,4.5,73,0.00,,---,0.00,VWS V13.01,2013-04-08 06:47:00,
2013-04-08 01:53:00,32.2,24.8,29.87,NNE,23,3.6,4.0,74,0.00,,---,0.00,VWS V13.01,2013-04-08 06:53:00,
2013-04-08 01:58:00,32.2,25.2,29.87,NNE,28,4.7,4.7,75,0.00,,---,0.00,VWS V13.01,2013-04-08 06:58:00,
2013-04-08 02:03:00,32.2,25.5,29.87,NNE,28,4.0,4.0,76,0.00,,---,0.00,VWS V13.01,2013-04-08 07:03:00,
2013-04-08 02:09:00,32.2,25.5,29.87,NE,36,3.6,4.0,76,0.00,,---,0.00,VWS V13.01,2013-04-08 07:09:00,
2013-04-08 02:14:00,32.2,25.5,29.87,NE,34,3.6,4.0,76,0.00,,---,0.00,VWS V13.01,2013-04-08 07:14:00,
2013-04-08 02:19:00,32.2,25.8,29.87,NE,34,3.6,3.6,77,0.00,,---,0.00,VWS V13.01,2013-04-08 07:19:00,
2013-04-08 02:24:00,32.2,25.8,29.87,NE,34,4.0,4.0,77,0.00,,---,0.00,VWS V13.01,2013-04-08 07:24:00,
2013-04-08 02:30:00,32.2,26.1,29.87,NE,34,4.0,4.0,78,0.00,,---,0.00,VWS V13.01,2013-04-08 07:30:00,
2013-04-08 02:35:00,32.4,26.3,29.87,NE,34,3.1,3.1,78,0.00,,---,0.00,VWS V13.01,2013-04-08 07:35:00,
2013-04-08 02:41:00,32.4,26.3,29.87,NE,34,0.0,3.1,78,0.00,,---,0.00,VWS V13.01,2013-04-08 07:41:00,
2013-04-08 02:47:00,32.4,26.6,29.87,NE,34,0.0,0.0,79,0.00,,---,0.00,VWS V13.01,2013-04-08 07:47:00,
2013-04-08 02:53:00,32.5,26.8,29.87,NE,34,0.0,0.0,79,0.00,,---,0.00,VWS V13.01,2013-04-08 07:53:00,
2013-04-08 02:59:00,32.5,26.8,29.87,NE,34,0.0,0.0,79,0.00,,---,0.00,VWS V13.01,2013-04-08 07:59:00,
2013-04-08 03:04:00,32.5,26.8,29.87,NE,34,0.0,0.0,79,0.00,,---,0.00,VWS V13.01,2013-04-08 08:04:00,
2013-04-08 03:10:00,32.5,26.8,29.87,NE,34,0.0,0.0,79,0.00,,---,0.00,VWS V13.01,2013-04-08 08:10:00,
2013-04-08 03:15:00,32.5,26.8,29.84,NNE,33,0.0,0.0,79,0.00,,---,0.00,VWS V13.01,2013-04-08 08:15:00,
2013-04-08 03:21:00,32.5,27.1,29.84,NE,34,0.0,0.0,80,0.00,,---,0.00,VWS V13.01,2013-04-08 08:21:00,
2013-04-08 03:26:00,32.5,27.1,29.84,NE,50,0.0,0.0,80,0.00,,---,0.00,VWS V13.01,2013-04-08 08:26:00,
2013-04-08 03:32:00,32.5,27.1,29.84,NE,50,0.0,0.0,80,0.00,,---,0.00,VWS V13.01,2013-04-08 08:32:00,
2013-04-08 03:38:00,32.5,27.4,29.84,NE,50,0.0,0.0,81,0.00,,---,0.00,VWS V13.01,2013-04-08 08:38:00,
2013-04-08 03:43:00,32.5,27.4,29.84,NE,50,0.0,0.0,81,0.00,,---,0.00,VWS V13.01,2013-04-08 08:43:00,
2013-04-08 03:48:00,32.5,27.4,29.84,NE,50,0.0,0.0,81,0.00,,---,0.00,VWS V13.01,2013-04-08 08:48:00,
2013-04-08 03:53:00,32.5,27.7,29.84,NE,50,0.0,0.0,82,0.00,,---,0.00,VWS V13.01,2013-04-08 08:53:00,
2013-04-08 03:59:00,32.5,27.7,29.84,ENE,61,0.0,0.0,82,0.00,,---,0.00,VWS V13.01,2013-04-08 08:59:00,
2013-04-08 04:04:00,32.5,28.0,29.84,ENE,61,0.0,0.0,83,0.00,,---,0.00,VWS V13.01,2013-04-08 09:04:00,
2013-04-08 04:09:00,32.5,28.0,29.84,ENE,61,0.0,0.0,83,0.00,,---,0.00,VWS V13.01,2013-04-08 09:09:00,
2013-04-08 04:14:00,32.5,28.2,29.84,ENE,61,0.0,0.0,84,0.04,,---,0.04,VWS V13.01,2013-04-08 09:14:00,
2013-04-08 04:20:00,32.5,28.2,29.84,ENE,61,0.0,0.0,84,0.04,,---,0.04,VWS V13.01,2013-04-08 09:20:00,
2013-04-08 04:25:00,32.5,28.5,29.84,ENE,61,0.0,0.0,85,0.04,,---,0.04,VWS V13.01,2013-04-08 09:25:00,
2013-04-08 04:31:00,32.5,28.5,29.84,ENE,61,0.0,0.0,85,0.04,,---,0.04,VWS V13.01,2013-04-08 09:31:00,
2013-04-08 04:36:00,32.5,28.8,29.84,ENE,61,0.0,0.0,86,0.04,,---,0.04,VWS V13.01,2013-04-08 09:36:00,
2013-04-08 04:42:00,32.5,28.8,29.81,ENE,61,0.0,0.0,86,0.04,,---,0.04,VWS V13.01,2013-04-08 09:42:00,
2013-04-08 04:48:00,32.4,28.6,29.81,ENE,61,0.0,0.0,86,0.04,,---,0.04,VWS V13.01,2013-04-08 09:48:00,
2013-04-08 04:53:00,32.4,28.9,29.81,ENE,61,0.0,0.0,87,0.04,,---,0.04,VWS V13.01,2013-04-08 09:53:00,
2013-04-08 04:59:00,32.4,28.9,29.81,ENE,61,0.0,0.0,87,0.04,,---,0.04,VWS V13.01,2013-04-08 09:59:00,
2013-04-08 05:04:00,32.4,28.9,29.81,ENE,61,0.0,0.0,87,0.04,,---,0.04,VWS V13.01,2013-04-08 10:04:00,
2013-04-08 05:09:00,32.4,29.2,29.81,ENE,61,0.0,0.0,88,0.04,,---,0.04,VWS V13.01,2013-04-08 10:09:00,
2013-04-08 05:14:00,32.4,29.2,29.81,ENE,61,0.0,0.0,88,0.04,,---,0.04,VWS V13.01,2013-04-08 10:14:00,
2013-04-08 05:20:00,32.4,29.2,29.81,ENE,61,0.0,0.0,88,0.00,,---,0.04,VWS V13.01,2013-04-08 10:20:00,
2013-04-08 05:25:00,32.4,29.2,29.81,ENE,61,0.0,0.0,88,0.00,,---,0.04,VWS V13.01,2013-04-08 10:25:00,
2013-04-08 05:30:00,32.4,29.2,29.81,ENE,61,0.0,0.0,88,0.00,,---,0.04,VWS V13.01,2013-04-08 10:30:00,
2013-04-08 05:35:00,32.4,29.5,29.81,ENE,61,0.0,0.0,89,0.00,,---,0.04,VWS V13.01,2013-04-08 10:35:00,
2013-04-08 05:40:00,32.4,29.5,29.81,ENE,61,0.0,0.0,89,0.00,,---,0.04,VWS V13.01,2013-04-08 10:40:00,
2013-04-08 05:45:00,32.5,29.7,29.81,ENE,61,0.0,0.0,89,0.00,,---,0.04,VWS V13.01,2013-04-08 10:45:00,
2013-04-08 05:51:00,32.5,29.7,29.81,ENE,61,0.0,0.0,89,0.00,,---,0.04,VWS V13.01,2013-04-08 10:51:00,
2013-04-08 05:56:00,32.5,29.7,29.81,ENE,61,0.0,0.0,89,0.00,,---,0.04,VWS V13.01,2013-04-08 10:56:00,
2013-04-08 06:01:00,32.5,29.7,29.81,ENE,61,0.0,0.0,89,0.00,,---,0.04,VWS V13.01,2013-04-08 11:01:00,
2013-04-08 06:06:00,32.5,29.9,29.81,ENE,61,0.0,0.0,90,0.00,,---,0.04,VWS V13.01,2013-04-08 11:06:00,
2013-04-08 06:11:00,32.5,29.9,29.81,ENE,61,0.0,0.0,90,0.00,,---,0.04,VWS V13.01,2013-04-08 11:11:00,
2013-04-08 06:16:00,32.5,29.9,29.81,ENE,61,0.0,0.0,90,0.00,,---,0.04,VWS V13.01,2013-04-08 11:16:00,
2013-04-08 06:21:00,32.5,29.9,29.81,ENE,61,0.0,0.0,90,0.00,,---,0.04,VWS V13.01,2013-04-08 11:21:00,
2013-04-08 06:26:00,32.5,29.9,29.81,ENE,61,0.0,0.0,90,0.00,,---,0.04,VWS V13.01,2013-04-08 11:26:00,
2013-04-08 06:31:00,32.7,30.1,29.81,ENE,61,0.0,0.0,90,0.00,,---,0.04,VWS V13.01,2013-04-08 11:31:00,
2013-04-08 06:36:00,32.7,30.1,29.81,ENE,61,0.0,0.0,90,0.00,,---,0.04,VWS V13.01,2013-04-08 11:36:00,
2013-04-08 06:41:00,32.5,30.2,29.81,ENE,61,0.0,0.0,91,0.00,,---,0.04,VWS V13.01,2013-04-08 11:41:00,
2013-04-08 06:46:00,32.5,30.2,29.81,ENE,61,0.0,0.0,91,0.00,,---,0.04,VWS V13.01,2013-04-08 11:46:00,
2013-04-08 06:52:00,32.5,30.2,29.81,ENE,61,0.0,0.0,91,0.00,,---,0.04,VWS V13.01,2013-04-08 11:52:00,
2013-04-08 06:57:00,32.5,30.2,29.81,ENE,61,0.0,0.0,91,0.00,,---,0.04,VWS V13.01,2013-04-08 11:57:00,
2013-04-08 07:02:00,32.5,30.2,29.81,ENE,61,0.0,0.0,91,0.00,,---,0.04,VWS V13.01,2013-04-08 12:02:00,
2013-04-08 07:08:00,32.5,30.2,29.81,ENE,61,0.0,0.0,91,0.00,,---,0.04,VWS V13.01,2013-04-08 12:08:00,
2013-04-08 07:13:00,32.7,30.7,29.81,ENE,61,0.0,0.0,92,0.00,,---,0.04,VWS V13.01,2013-04-08 12:13:00,
2013-04-08 07:18:00,32.7,30.7,29.81,ENE,61,0.0,0.0,92,0.00,,---,0.04,VWS V13.01,2013-04-08 12:18:00,
2013-04-08 07:23:00,32.7,30.7,29.81,ENE,61,0.0,0.0,92,0.00,,---,0.04,VWS V13.01,2013-04-08 12:23:00,
2013-04-08 07:28:00,32.7,30.7,29.81,ENE,61,0.0,0.0,92,0.00,,---,0.04,VWS V13.01,2013-04-08 12:28:00,
2013-04-08 07:33:00,32.7,30.7,29.81,ENE,61,0.0,0.0,92,0.00,,---,0.04,VWS V13.01,2013-04-08 12:33:00,
2013-04-08 07:38:00,32.7,30.7,29.81,ENE,61,0.0,0.0,92,0.00,,---,0.04,VWS V13.01,2013-04-08 12:38:00,
2013-04-08 07:44:00,32.7,30.7,29.81,ENE,60,0.0,0.0,92,0.00,,---,0.04,VWS V13.01,2013-04-08 12:44:00,
2013-04-08 07:49:00,32.7,30.7,29.81,NE,48,0.0,0.0,92,0.00,,---,0.04,VWS V13.01,2013-04-08 12:49:00,
2013-04-08 07:54:00,32.7,30.9,29.81,NE,44,0.0,0.0,93,0.00,,---,0.04,VWS V13.01,2013-04-08 12:54:00,
2013-04-08 08:00:00,32.7,30.9,29.81,NE,39,0.0,0.0,93,0.00,,---,0.04,VWS V13.01,2013-04-08 13:00:00,
2013-04-08 08:05:00,32.7,30.9,29.81,NNE,31,0.0,0.0,93,0.00,,---,0.04,VWS V13.01,2013-04-08 13:05:00,
2013-04-08 08:10:00,32.7,30.9,29.81,NE,40,0.0,0.0,93,0.00,,---,0.04,VWS V13.01,2013-04-08 13:10:00,
2013-04-08 08:16:00,32.7,30.9,29.81,NE,38,0.0,0.0,93,0.00,,---,0.04,VWS V13.01,2013-04-08 13:16:00,
2013-04-08 08:21:00,32.7,30.9,29.81,ENE,58,0.0,0.0,93,0.00,,---,0.04,VWS V13.01,2013-04-08 13:21:00,
2013-04-08 08:26:00,32.7,30.9,29.81,NNE,32,0.0,0.0,93,0.00,,---,0.04,VWS V13.01,2013-04-08 13:26:00,
2013-04-08 08:31:00,32.7,30.9,29.81,NE,39,0.0,0.0,93,0.04,,---,0.08,VWS V13.01,2013-04-08 13:31:00,
2013-04-08 08:37:00,32.7,30.9,29.81,NNE,26,0.0,0.0,93,0.04,,---,0.08,VWS V13.01,2013-04-08 13:37:00,
2013-04-08 08:42:00,32.7,31.2,29.81,NE,41,0.0,0.0,94,0.04,,---,0.08,VWS V13.01,2013-04-08 13:42:00,
2013-04-08 08:48:00,32.7,31.2,29.81,NNE,31,0.0,0.0,94,0.04,,---,0.08,VWS V13.01,2013-04-08 13:48:00,
2013-04-08 08:54:00,32.7,31.2,29.81,NNE,33,0.0,0.0,94,0.04,,---,0.08,VWS V13.01,2013-04-08 13:54:00,
2013-04-08 08:59:00,32.7,31.2,29.81,NNE,31,0.0,0.0,94,0.04,,---,0.08,VWS V13.01,2013-04-08 13:59:00,
2013-04-08 09:05:00,32.7,31.2,29.81,NNE,33,0.0,0.0,94,0.04,,---,0.08,VWS V13.01,2013-04-08 14:05:00,
2013-04-08 09:10:00,32.7,31.2,29.81,North,357,0.0,0.0,94,0.04,,---,0.08,VWS V13.01,2013-04-08 14:10:00,
2013-04-08 09:16:00,32.9,31.4,29.81,ENE,62,0.0,0.0,94,0.04,,---,0.08,VWS V13.01,2013-04-08 14:16:00,
2013-04-08 09:21:00,32.9,31.4,29.81,NNE,25,0.0,0.0,94,0.04,,---,0.08,VWS V13.01,2013-04-08 14:21:00,
2013-04-08 09:27:00,32.9,31.4,29.81,NE,40,0.0,0.0,94,0.04,,---,0.08,VWS V13.01,2013-04-08 14:27:00,
2013-04-08 09:33:00,32.9,31.4,29.81,NNE,33,0.0,0.0,94,0.00,,---,0.08,VWS V13.01,2013-04-08 14:33:00,
2013-04-08 09:39:00,32.9,31.6,29.81,North,8,0.0,0.0,95,0.00,,---,0.08,VWS V13.01,2013-04-08 14:39:00,
2013-04-08 09:44:00,32.9,31.6,29.81,NNE,31,0.0,0.0,95,0.00,,---,0.08,VWS V13.01,2013-04-08 14:44:00,
2013-04-08 09:49:00,33.1,31.8,29.81,NE,34,4.7,4.7,95,0.00,,---,0.08,VWS V13.01,2013-04-08 14:49:00,
2013-04-08 09:54:00,33.1,31.8,29.81,NE,42,4.0,4.5,95,0.00,,---,0.08,VWS V13.01,2013-04-08 14:54:00,
2013-04-08 09:59:00,33.1,31.8,29.81,NE,38,4.5,4.7,95,0.00,,---,0.08,VWS V13.01,2013-04-08 14:59:00,
2013-04-08 10:05:00,33.1,31.8,29.81,NNE,30,4.0,4.5,95,0.00,,---,0.08,VWS V13.01,2013-04-08 15:05:00,
2013-04-08 10:12:00,33.1,31.8,29.81,NE,45,4.5,4.7,95,0.00,,---,0.08,VWS V13.01,2013-04-08 15:12:00,
2013-04-08 10:17:00,33.1,31.8,29.81,NNE,28,5.1,5.1,95,0.00,,---,0.08,VWS V13.01,2013-04-08 15:17:00,
2013-04-08 10:23:00,33.3,32.0,29.81,NNE,30,4.5,5.6,95,0.00,,---,0.08,VWS V13.01,2013-04-08 15:23:00,
2013-04-08 10:29:00,33.3,32.0,29.81,NE,38,4.5,4.5,95,0.04,,---,0.12,VWS V13.01,2013-04-08 15:29:00,
2013-04-08 10:34:00,33.3,32.0,29.81,NNE,25,4.5,4.7,95,0.04,,---,0.12,VWS V13.01,2013-04-08 15:34:00,
2013-04-08 10:39:00,33.4,32.2,29.81,NNE,25,4.5,4.5,95,0.04,,---,0.12,VWS V13.01,2013-04-08 15:39:00,
2013-04-08 10:45:00,33.6,32.3,29.81,ENE,57,3.1,6.0,95,0.04,,---,0.12,VWS V13.01,2013-04-08 15:45:00,
2013-04-08 10:51:00,33.6,32.6,29.81,NNE,32,0.0,4.5,96,0.04,,---,0.12,VWS V13.01,2013-04-08 15:51:00,
2013-04-08 10:57:00,33.8,32.5,29.81,NNE,32,0.0,0.0,95,0.04,,---,0.12,VWS V13.01,2013-04-08 15:57:00,
2013-04-08 11:02:00,34.0,32.7,29.84,NNE,32,4.0,4.0,95,0.04,,---,0.12,VWS V13.01,2013-04-08 16:02:00,
2013-04-08 11:08:00,34.0,32.7,29.84,ENE,60,3.6,3.6,95,0.04,,---,0.12,VWS V13.01,2013-04-08 16:08:00,
2013-04-08 11:13:00,34.2,32.9,29.84,NE,49,2.7,3.6,95,0.08,,---,0.16,VWS V13.01,2013-04-08 16:13:00,
2013-04-08 11:18:00,34.3,33.3,29.84,NE,44,3.6,3.6,96,0.08,,---,0.16,VWS V13.01,2013-04-08 16:18:00,
2013-04-08 11:25:00,34.3,33.3,29.84,NNE,19,3.1,4.5,96,0.08,,---,0.16,VWS V13.01,2013-04-08 16:25:00,
2013-04-08 11:31:00,34.5,33.5,29.84,NNE,19,3.6,3.6,96,0.04,,---,0.16,VWS V13.01,2013-04-08 16:31:00,
2013-04-08 11:37:00,34.5,33.5,29.84,NNE,19,0.0,0.0,96,0.04,,---,0.16,VWS V13.01,2013-04-08 16:37:00,
2013-04-08 11:43:00,34.7,33.7,29.84,NNE,28,2.7,3.6,96,0.04,,---,0.16,VWS V13.01,2013-04-08 16:43:00,
2013-04-08 11:49:00,35.1,34.0,29.84,East,90,2.7,3.6,96,0.04,,---,0.16,VWS V13.01,2013-04-08 16:49:00,
2013-04-08 11:55:00,35.2,34.2,29.84,ESE,103,3.6,4.5,96,0.04,,---,0.16,VWS V13.01,2013-04-08 16:55:00,
2013-04-08 12:00:00,35.2,34.2,29.84,East,93,0.0,0.0,96,0.04,,---,0.16,VWS V13.01,2013-04-08 17:00:00,
2013-04-08 12:06:00,35.2,34.2,29.84,NE,35,4.5,4.7,96,0.04,,---,0.16,VWS V13.01,2013-04-08 17:06:00,
2013-04-08 12:11:00,35.2,34.2,29.84,ENE,57,2.7,3.6,96,0.08,,---,0.20,VWS V13.01,2013-04-08 17:11:00,
2013-04-08 12:17:00,35.4,34.4,29.84,NE,34,4.0,4.0,96,0.04,,---,0.20,VWS V13.01,2013-04-08 17:17:00,
2013-04-08 12:22:00,35.4,34.4,29.84,NE,49,4.7,4.7,96,0.04,,---,0.20,VWS V13.01,2013-04-08 17:22:00,
2013-04-08 12:27:00,35.6,34.6,29.84,NE,40,5.1,5.1,96,0.04,,---,0.20,VWS V13.01,2013-04-08 17:27:00,
2013-04-08 12:32:00,35.6,34.6,29.84,NE,48,4.0,4.7,96,0.04,,---,0.20,VWS V13.01,2013-04-08 17:32:00,
2013-04-08 12:37:00,35.6,34.6,29.84,NE,40,5.6,5.6,96,0.04,,---,0.20,VWS V13.01,2013-04-08 17:37:00,
2013-04-08 12:42:00,35.6,34.6,29.84,NNE,27,3.6,4.5,96,0.04,,---,0.20,VWS V13.01,2013-04-08 17:42:00,
2013-04-08 12:48:00,35.6,34.6,29.84,ENE,65,3.1,4.0,96,0.04,,---,0.20,VWS V13.01,2013-04-08 17:48:00,
2013-04-08 12:53:00,35.6,34.6,29.84,NE,55,4.5,6.5,96,0.04,,---,0.20,VWS V13.01,2013-04-08 17:53:00,
2013-04-08 12:58:00,35.8,34.8,29.84,NNE,33,4.0,4.0,96,0.04,,---,0.20,VWS V13.01,2013-04-08 17:58:00,
2013-04-08 13:03:00,35.8,34.8,29.84,ENE,61,3.6,4.5,96,0.04,,---,0.20,VWS V13.01,2013-04-08 18:03:00,
2013-04-08 13:08:00,36.0,34.9,29.84,NE,42,3.6,4.5,96,0.04,,---,0.20,VWS V13.01,2013-04-08 18:08:00,
2013-04-08 13:13:00,36.1,35.1,29.84,NE,38,4.5,4.5,96,0.00,,---,0.20,VWS V13.01,2013-04-08 18:13:00,
2013-04-08 13:19:00,36.3,35.3,29.84,ENE,78,3.6,5.1,96,0.00,,---,0.20,VWS V13.01,2013-04-08 18:19:00,
2013-04-08 13:24:00,36.3,35.3,29.84,NE,47,3.1,4.0,96,0.00,,---,0.20,VWS V13.01,2013-04-08 18:24:00,
2013-04-08 13:30:00,36.3,35.3,29.84,NNE,32,0.0,3.6,96,0.00,,---,0.20,VWS V13.01,2013-04-08 18:30:00,
2013-04-08 13:35:00,36.3,35.3,29.84,East,90,3.1,3.1,96,0.00,,---,0.20,VWS V13.01,2013-04-08 18:35:00,
2013-04-08 13:41:00,36.3,35.3,29.84,NNE,28,5.1,5.1,96,0.00,,---,0.20,VWS V13.01,2013-04-08 18:41:00,
2013-04-08 13:47:00,36.3,35.3,29.84,NNE,27,4.7,5.1,96,0.00,,---,0.20,VWS V13.01,2013-04-08 18:47:00,
2013-04-08 13:52:00,36.5,35.5,29.84,NE,44,2.7,3.1,96,0.00,,---,0.20,VWS V13.01,2013-04-08 18:52:00,
2013-04-08 13:58:00,36.3,35.3,29.87,NNE,26,4.5,5.6,96,0.00,,---,0.20,VWS V13.01,2013-04-08 18:58:00,
2013-04-08 14:04:00,36.5,35.7,29.87,NE,42,2.7,3.6,97,0.00,,---,0.20,VWS V13.01,2013-04-08 19:04:00,
2013-04-08 14:10:00,36.5,35.7,29.87,NE,49,4.0,4.0,97,0.00,,---,0.20,VWS V13.01,2013-04-08 19:10:00,
2013-04-08 14:15:00,36.7,35.9,29.84,NNE,27,4.5,5.1,97,0.00,,---,0.20,VWS V13.01,2013-04-08 19:15:00,
2013-04-08 14:20:00,36.7,35.9,29.84,NNE,19,4.5,4.5,97,0.00,,---,0.20,VWS V13.01,2013-04-08 19:20:00,
2013-04-08 14:26:00,36.7,35.9,29.84,NNE,27,4.5,4.5,97,0.00,,---,0.20,VWS V13.01,2013-04-08 19:26:00,
2013-04-08 14:32:00,36.7,35.9,29.87,NE,49,3.6,4.0,97,0.00,,---,0.20,VWS V13.01,2013-04-08 19:32:00,
2013-04-08 14:38:00,36.7,35.9,29.87,ENE,60,4.5,5.6,97,0.00,,---,0.20,VWS V13.01,2013-04-08 19:38:00,
2013-04-08 14:43:00,36.7,35.9,29.87,NE,52,4.0,4.0,97,0.00,,---,0.20,VWS V13.01,2013-04-08 19:43:00,
2013-04-08 14:50:00,36.7,35.9,29.87,NNE,20,0.0,0.0,97,0.00,,---,0.20,VWS V13.01,2013-04-08 19:50:00,
2013-04-08 14:56:00,36.7,35.9,29.87,NNE,20,0.0,0.0,97,0.00,,---,0.20,VWS V13.01,2013-04-08 19:56:00,
2013-04-08 15:02:00,36.9,36.1,29.87,NNE,20,0.0,0.0,97,0.00,,---,0.20,VWS V13.01,2013-04-08 20:02:00,
2013-04-08 15:07:00,36.9,36.1,29.87,NE,48,3.1,4.0,97,0.00,,---,0.20,VWS V13.01,2013-04-08 20:07:00,
2013-04-08 15:13:00,36.9,36.1,29.87,NE,45,0.0,4.5,97,0.00,,---,0.20,VWS V13.01,2013-04-08 20:13:00,
2013-04-08 15:18:00,36.9,36.1,29.87,NNE,27,0.0,4.5,97,0.00,,---,0.20,VWS V13.01,2013-04-08 20:18:00,
2013-04-08 15:24:00,36.9,36.1,29.87,NNE,27,0.0,0.0,97,0.00,,---,0.20,VWS V13.01,2013-04-08 20:24:00,
2013-04-08 15:30:00,37.0,36.3,29.87,NNE,27,0.0,0.0,97,0.00,,---,0.20,VWS V13.01,2013-04-08 20:30:00,
2013-04-08 15:35:00,37.0,36.3,29.87,NNE,27,0.0,0.0,97,0.00,,---,0.20,VWS V13.01,2013-04-08 20:35:00,
2013-04-08 15:42:00,37.0,36.3,29.87,NNE,27,4.0,4.7,97,0.00,,---,0.20,VWS V13.01,2013-04-08 20:42:00,
2013-04-08 15:48:00,37.0,36.3,29.87,NNE,21,3.6,4.0,97,0.00,,---,0.20,VWS V13.01,2013-04-08 20:48:00,
2013-04-08 15:53:00,36.9,36.1,29.87,NNE,28,5.1,5.1,97,0.00,,---,0.20,VWS V13.01,2013-04-08 20:53:00,
2013-04-08 15:59:00,36.9,36.1,29.90,NNE,25,3.6,4.5,97,0.00,,---,0.20,VWS V13.01,2013-04-08 20:59:00,
2013-04-08 16:04:00,36.9,36.1,29.90,NE,50,3.1,4.7,97,0.00,,---,0.20,VWS V13.01,2013-04-08 21:04:00,
2013-04-08 16:10:00,36.7,35.9,29.90,NE,36,4.7,4.7,97,0.00,,---,0.20,VWS V13.01,2013-04-08 21:10:00,
2013-04-08 16:16:00,36.9,36.1,29.90,North,7,4.0,4.0,97,0.00,,---,0.20,VWS V13.01,2013-04-08 21:16:00,
2013-04-08 16:22:00,36.9,36.1,29.90,North,6,4.0,4.0,97,0.00,,---,0.20,VWS V13.01,2013-04-08 21:22:00,
2013-04-08 16:28:00,36.9,36.1,29.90,NNE,21,2.7,3.6,97,0.00,,---,0.20,VWS V13.01,2013-04-08 21:28:00,
2013-04-08 16:33:00,36.9,36.1,29.90,NNE,21,0.0,0.0,97,0.00,,---,0.20,VWS V13.01,2013-04-08 21:33:00,
2013-04-08 16:38:00,36.9,36.1,29.90,NE,38,5.1,5.1,97,0.00,,---,0.20,VWS V13.01,2013-04-08 21:38:00,
2013-04-08 16:43:00,36.9,36.1,29.90,NE,36,0.0,0.0,97,0.00,,---,0.20,VWS V13.01,2013-04-08 21:43:00,
2013-04-08 16:48:00,36.9,36.1,29.90,NE,36,0.0,0.0,97,0.00,,---,0.20,VWS V13.01,2013-04-08 21:48:00,
2013-04-08 16:54:00,36.7,35.9,29.90,North,10,3.1,3.6,97,0.00,,---,0.20,VWS V13.01,2013-04-08 21:54:00,
2013-04-08 16:59:00,36.7,35.9,29.90,NNE,17,4.0,4.5,97,0.00,,---,0.20,VWS V13.01,2013-04-08 21:59:00,
2013-04-08 17:05:00,36.7,35.9,29.90,NNE,32,2.7,2.7,97,0.00,,---,0.20,VWS V13.01,2013-04-08 22:05:00,
2013-04-08 17:11:00,36.7,35.9,29.90,ENE,64,0.0,0.0,97,0.00,,---,0.20,VWS V13.01,2013-04-08 22:11:00,
2013-04-08 17:16:00,36.5,35.7,29.90,ENE,64,0.0,0.0,97,0.00,,---,0.20,VWS V13.01,2013-04-08 22:16:00,
2013-04-08 17:22:00,36.5,35.7,29.90,NE,45,0.0,0.0,97,0.00,,---,0.20,VWS V13.01,2013-04-08 22:22:00,
2013-04-08 17:27:00,36.3,35.5,29.93,North,350,0.0,0.0,97,0.00,,---,0.20,VWS V13.01,2013-04-08 22:27:00,
2013-04-08 17:33:00,36.3,35.5,29.93,NNE,19,3.1,4.7,97,0.00,,---,0.20,VWS V13.01,2013-04-08 22:33:00,
2013-04-08 17:38:00,36.3,35.5,29.93,NNE,13,2.7,3.1,97,0.00,,---,0.20,VWS V13.01,2013-04-08 22:38:00,
2013-04-08 17:43:00,36.1,35.4,29.93,NE,40,0.0,0.0,97,0.00,,---,0.20,VWS V13.01,2013-04-08 22:43:00,
2013-04-08 17:48:00,36.1,35.4,29.93,NE,40,3.6,3.6,97,0.00,,---,0.20,VWS V13.01,2013-04-08 22:48:00,
2013-04-08 17:53:00,36.1,35.4,29.93,ENE,68,2.7,2.7,97,0.00,,---,0.20,VWS V13.01,2013-04-08 22:53:00,
2013-04-08 17:58:00,36.1,35.4,29.93,NNE,32,4.0,4.0,97,0.00,,---,0.20,VWS V13.01,2013-04-08 22:58:00,
2013-04-08 18:03:00,36.1,35.4,29.93,NNE,32,0.0,2.7,97,0.00,,---,0.20,VWS V13.01,2013-04-08 23:03:00,
2013-04-08 18:08:00,36.1,35.4,29.93,NE,34,4.0,4.5,97,0.00,,---,0.20,VWS V13.01,2013-04-08 23:08:00,
2013-04-08 18:13:00,36.1,35.4,29.93,NE,50,0.0,0.0,97,0.00,,---,0.20,VWS V13.01,2013-04-08 23:13:00,
2013-04-08 18:19:00,36.1,35.4,29.93,NNE,15,0.0,0.0,97,0.00,,---,0.20,VWS V13.01,2013-04-08 23:19:00,
2013-04-08 18:24:00,36.0,35.2,29.93,North,10,3.6,3.6,97,0.00,,---,0.20,VWS V13.01,2013-04-08 23:24:00,
2013-04-08 18:29:00,36.0,35.2,29.96,North,357,3.1,4.0,97,0.00,,---,0.20,VWS V13.01,2013-04-08 23:29:00,
2013-04-08 18:34:00,36.0,35.2,29.96,North,357,0.0,0.0,97,0.00,,---,0.20,VWS V13.01,2013-04-08 23:34:00,
2013-04-08 18:39:00,36.0,35.2,29.96,North,357,0.0,0.0,97,0.00,,---,0.20,VWS V13.01,2013-04-08 23:39:00,
2013-04-08 18:44:00,35.8,35.0,29.96,North,357,0.0,0.0,97,0.00,,---,0.20,VWS V13.01,2013-04-08 23:44:00,
2013-04-08 18:49:00,35.8,35.0,29.96,North,357,3.6,3.6,97,0.00,,---,0.20,VWS V13.01,2013-04-08 23:49:00,
2013-04-08 18:54:00,35.8,35.0,29.96,North,357,0.0,0.0,97,0.00,,---,0.20,VWS V13.01,2013-04-08 23:54:00,
2013-04-08 18:59:00,35.8,35.0,29.96,North,357,0.0,0.0,97,0.00,,---,0.20,VWS V13.01,2013-04-08 23:59:00,
2013-04-08 19:04:00,35.8,35.0,29.96,North,357,0.0,0.0,97,0.00,,---,0.20,VWS V13.01,2013-04-09 00:04:00,
2013-04-08 19:09:00,35.8,35.0,29.96,North,357,0.0,0.0,97,0.00,,---,0.20,VWS V13.01,2013-04-09 00:09:00,
2013-04-08 19:14:00,35.8,35.0,29.96,North,357,0.0,0.0,97,0.00,,---,0.20,VWS V13.01,2013-04-09 00:14:00,
2013-04-08 19:19:00,35.8,35.0,29.96,North,357,0.0,0.0,97,0.00,,---,0.20,VWS V13.01,2013-04-09 00:19:00,
2013-04-08 19:24:00,35.8,35.0,29.96,North,357,3.1,3.1,97,0.00,,---,0.20,VWS V13.01,2013-04-09 00:24:00,
2013-04-08 19:29:00,35.8,35.0,29.99,North,357,2.7,2.7,97,0.00,,---,0.20,VWS V13.01,2013-04-09 00:29:00,
2013-04-08 19:34:00,35.6,34.8,29.99,North,357,2.7,3.1,97,0.00,,---,0.20,VWS V13.01,2013-04-09 00:34:00,
2013-04-08 19:39:00,35.6,34.8,29.99,North,357,3.1,3.1,97,0.00,,---,0.20,VWS V13.01,2013-04-09 00:39:00,
2013-04-08 19:44:00,35.6,34.8,29.99,North,357,3.6,3.6,97,0.00,,---,0.20,VWS V13.01,2013-04-09 00:44:00,
2013-04-08 19:49:00,35.6,34.8,29.99,North,357,3.1,3.6,97,0.00,,---,0.20,VWS V13.01,2013-04-09 00:49:00,
2013-04-08 19:54:00,35.6,34.8,29.99,North,357,0.0,0.0,97,0.00,,---,0.20,VWS V13.01,2013-04-09 00:54:00,
2013-04-08 19:59:00,35.6,34.8,29.99,North,357,0.0,0.0,97,0.00,,---,0.20,VWS V13.01,2013-04-09 00:59:00,
2013-04-08 20:04:00,35.6,34.8,29.99,North,357,0.0,0.0,97,0.00,,---,0.20,VWS V13.01,2013-04-09 01:04:00,
2013-04-08 20:10:00,35.6,34.8,29.99,North,357,0.0,0.0,97,0.00,,---,0.20,VWS V13.01,2013-04-09 01:10:00,
2013-04-08 20:15:00,35.4,34.7,29.99,North,357,0.0,0.0,97,0.00,,---,0.20,VWS V13.01,2013-04-09 01:15:00,
2013-04-08 20:20:00,35.4,34.7,29.99,North,357,0.0,0.0,97,0.00,,---,0.20,VWS V13.01,2013-04-09 01:20:00,
2013-04-08 20:25:00,35.4,34.7,29.99,North,357,0.0,0.0,97,0.00,,---,0.20,VWS V13.01,2013-04-09 01:25:00,
2013-04-08 20:30:00,35.4,34.7,30.02,North,357,0.0,0.0,97,0.00,,---,0.20,VWS V13.01,2013-04-09 01:30:00,
2013-04-08 20:35:00,35.4,34.7,30.02,North,357,0.0,0.0,97,0.00,,---,0.20,VWS V13.01,2013-04-09 01:35:00,
2013-04-08 20:41:00,35.4,34.7,30.02,North,357,0.0,0.0,97,0.00,,---,0.20,VWS V13.01,2013-04-09 01:41:00,
2013-04-08 20:46:00,35.4,34.7,30.02,North,357,0.0,0.0,97,0.00,,---,0.20,VWS V13.01,2013-04-09 01:46:00,
2013-04-08 20:51:00,35.4,34.7,30.02,North,357,0.0,0.0,97,0.00,,---,0.20,VWS V13.01,2013-04-09 01:51:00,
2013-04-08 20:57:00,35.2,34.5,30.02,North,357,0.0,0.0,97,0.00,,---,0.20,VWS V13.01,2013-04-09 01:57:00,
2013-04-08 21:02:00,35.1,34.3,30.02,North,357,0.0,0.0,97,0.00,,---,0.20,VWS V13.01,2013-04-09 02:02:00,
2013-04-08 21:07:00,35.1,34.3,30.02,North,357,0.0,0.0,97,0.00,,---,0.20,VWS V13.01,2013-04-09 02:07:00,
2013-04-08 21:12:00,35.1,34.3,30.02,North,357,0.0,0.0,97,0.00,,---,0.20,VWS V13.01,2013-04-09 02:12:00,
2013-04-08 21:18:00,34.9,34.1,30.02,North,357,0.0,0.0,97,0.00,,---,0.20,VWS V13.01,2013-04-09 02:18:00,
2013-04-08 21:24:00,34.9,34.1,30.02,North,357,0.0,0.0,97,0.00,,---,0.20,VWS V13.01,2013-04-09 02:24:00,
2013-04-08 21:29:00,34.9,34.1,30.02,North,357,0.0,0.0,97,0.00,,---,0.20,VWS V13.01,2013-04-09 02:29:00,
2013-04-08 21:35:00,34.9,34.1,30.02,North,357,0.0,0.0,97,0.00,,---,0.20,VWS V13.01,2013-04-09 02:35:00,
2013-04-08 21:41:00,34.9,34.1,30.02,North,357,0.0,0.0,97,0.00,,---,0.20,VWS V13.01,2013-04-09 02:41:00,
2013-04-08 21:46:00,34.7,33.9,30.05,North,357,0.0,0.0,97,0.00,,---,0.20,VWS V13.01,2013-04-09 02:46:00,
2013-04-08 21:52:00,34.5,33.8,30.05,North,357,0.0,0.0,97,0.00,,---,0.20,VWS V13.01,2013-04-09 02:52:00,
2013-04-08 21:58:00,34.3,33.3,30.02,North,357,0.0,0.0,96,0.00,,---,0.20,VWS V13.01,2013-04-09 02:58:00,
2013-04-08 22:04:00,34.3,33.3,30.02,North,357,0.0,0.0,96,0.00,,---,0.20,VWS V13.01,2013-04-09 03:04:00,
2013-04-08 22:10:00,34.3,33.3,30.02,North,357,0.0,0.0,96,0.00,,---,0.20,VWS V13.01,2013-04-09 03:10:00,
2013-04-08 22:16:00,34.3,33.3,30.05,North,357,0.0,0.0,96,0.00,,---,0.20,VWS V13.01,2013-04-09 03:16:00,
2013-04-08 22:21:00,34.3,33.3,30.05,North,357,0.0,0.0,96,0.00,,---,0.20,VWS V13.01,2013-04-09 03:21:00,
2013-04-08 22:26:00,34.2,33.1,30.05,North,357,0.0,0.0,96,0.00,,---,0.20,VWS V13.01,2013-04-09 03:26:00,
2013-04-08 22:32:00,34.2,33.1,30.05,North,357,0.0,0.0,96,0.00,,---,0.20,VWS V13.01,2013-04-09 03:32:00,
2013-04-08 22:38:00,34.2,33.1,30.05,North,357,0.0,0.0,96,0.00,,---,0.20,VWS V13.01,2013-04-09 03:38:00,
2013-04-08 22:44:00,34.2,33.1,30.05,North,357,0.0,0.0,96,0.00,,---,0.20,VWS V13.01,2013-04-09 03:44:00,
2013-04-08 22:51:00,34.0,33.0,30.05,North,357,0.0,0.0,96,0.00,,---,0.20,VWS V13.01,2013-04-09 03:51:00,
2013-04-08 22:56:00,34.0,33.0,30.05,North,357,0.0,0.0,96,0.00,,---,0.20,VWS V13.01,2013-04-09 03:56:00,
2013-04-08 23:01:00,34.0,33.0,30.05,North,357,0.0,0.0,96,0.00,,---,0.20,VWS V13.01,2013-04-09 04:01:00,
2013-04-08 23:02:00,34.0,33.0,30.05,North,357,0.0,0.0,96,0.00,,---,0.20,VWS V13.01,2013-04-09 04:02:00,
2013-04-08 23:04:00,34.0,33.0,30.05,North,357,0.0,0.0,96,0.00,,---,0.20,VWS V13.01,2013-04-09 04:04:00,
2013-04-08 23:09:00,34.0,33.0,30.05,North,357,0.0,0.0,96,0.00,,---,0.20,VWS V13.01,2013-04-09 04:09:00,
2013-04-08 23:14:00,33.8,32.8,30.05,North,357,0.0,0.0,96,0.00,,---,0.20,VWS V13.01,2013-04-09 04:14:00,
2013-04-08 23:20:00,33.8,32.8,30.05,North,357,0.0,0.0,96,0.00,,---,0.20,VWS V13.01,2013-04-09 04:20:00,
2013-04-08 23:25:00,33.8,32.8,30.05,North,357,0.0,0.0,96,0.00,,---,0.20,VWS V13.01,2013-04-09 04:25:00,
2013-04-08 23:30:00,33.8,32.8,30.05,North,357,0.0,0.0,96,0.00,,---,0.20,VWS V13.01,2013-04-09 04:30:00,
2013-04-08 23:35:00,33.8,32.8,30.05,North,357,0.0,0.0,96,0.00,,---,0.20,VWS V13.01,2013-04-09 04:35:00,
2013-04-08 23:41:00,33.6,32.6,30.05,North,357,0.0,0.0,96,0.00,,---,0.20,VWS V13.01,2013-04-09 04:41:00,
2013-04-08 23:47:00,33.6,32.6,30.05,North,357,0.0,0.0,96,0.00,,---,0.20,VWS V13.01,2013-04-09 04:47:00,
2013-04-08 23:52:00,33.6,32.6,30.05,North,357,0.0,0.0,96,0.00,,---,0.20,VWS V13.01,2013-04-09 04:52:00,
2013-04-08 23:58:00,33.4,32.4,30.05,North,357,0.0,0.0,96,0.00,,---,0.20,VWS V13.01,2013-04-09 04:58:00,